Regional Weather Roundup
Issued by NWS

Home | Current Version | Previous Version | Text Only | Print | Product List | Glossary On
Versions: 1 2 3 4 5 6 7 8 9 10 11 12 13 14 15 16 17 18 19 20 21 22 23 24 25 26 27 28
000
ASUS45 KBOI 251810
RWRID

IDAHO REGIONAL WEATHER ROUNDUP
NATIONAL WEATHER SERVICE BOISE ID
1200 PM MDT MON JUL 25 2016

NOTE: "FAIR" INDICATES FEW OR NO CLOUDS BELOW 12000 FEET
WITH NO SIGNIFICANT WEATHER AND/OR OBSTRUCTIONS TO VISIBILITY

IDZ012-014-251900-
SOUTHWEST IDAHO


CITY           SKY/WX    TMP DP  RH WIND       PRES   REMARKS
BOISE          SUNNY     85  41  21 W6        30.03S
CALDWELL       NOT AVBL
MOUNTAIN HOME  SUNNY     85  38  18 VRB5      30.03F
$$

IDZ016-017-251900-
SOUTHCENTRAL IDAHO


CITY           SKY/WX    TMP DP  RH WIND       PRES   REMARKS
BURLEY         SUNNY     82  44  26 VRB5      30.10S
JEROME         SUNNY     81  41  24 S6        30.11S
TWIN FALLS     SUNNY     84  40  21 NW7       30.11S
$$

IDZ019>023-251900-
SOUTHEAST IDAHO


CITY           SKY/WX    TMP DP  RH WIND       PRES   REMARKS
IDAHO FALLS    SUNNY     83  40  21 N5        30.14F
POCATELLO      SUNNY     83  43  24 VRB5      30.13F
REXBURG        NOT AVBL
$$

IDZ006-010-011-018-031-032-251900-
CENTRAL IDAHO MOUNTAINS


CITY           SKY/WX    TMP DP  RH WIND       PRES   REMARKS
MCCALL         SUNNY     77  46  33 S5        30.17F
HAILEY         SUNNY     81  46  30 SE12      30.18S
STANLEY        NOT AVBL
SALMON         SUNNY     79  45  29 N5        30.07F
CHALLIS        SUNNY     79  38  22 CALM      30.15F
$$

IDZ002-004-006-007-026-251900-
NORTHERN IDAHO


CITY           SKY/WX    TMP DP  RH WIND       PRES   REMARKS
LEWISTON       SUNNY     83  49  30 CALM      30.01F
LOWELL           N/A     76  51  41 N5        30.02F
COEUR D`ALENE  SUNNY     81  55  41 N5        30.03S
MULLAN PASS    SUNNY     67  44  43 CALM      30.24S
$$




USA.gov is the U.S. government's official web portal to all federal, state and local government web resources and services.